Regional Weather Roundup
Issued by NWS

Home | Current Version | Previous Version | Text Only | Print | Product List | Glossary On
Versions: 1 2 3 4 5 6 7 8 9 10 11 12 13 14 15 16 17 18 19 20 21 22 23 24 25 26 27 28 29 30 31 32 33 34 35 36 37 38 39 40 41 42 43 44 45 46 47 48 49 50
000
ASUS46 KSEW 121310
RWRWA

WASHINGTON REGIONAL WEATHER ROUNDUP
NATIONAL WEATHER SERVICE SEATTLE WA
500 AM PST FRI FEB 12 2016

NOTE:"FAIR" INDICATES FEW OR NO CLOUDS BELOW 12,000 FEET WITH NO
SIGNIFICANT WEATHER AND/OR OBSTRUCTIONS TO VISIBILITY.

WAZ505-507>509-121400-
SEATTLE, TACOMA, EVERETT, AND VICINITY

CITY           SKY/WX    TMP DP  RH WIND       PRES   REMARKS
EVERETT        LGT RAIN  51  49  92 S16       30.08R FOG
BOEING FIELD   CLOUDY    52  52 100 S6        30.09S
RENTON         CLOUDY    53  50  89 S3        30.09S
SEATAC AIRPORT CLOUDY    50  49  96 SE10      30.09S
JBLM-MCCHORD   CLOUDY    51  51 100 S5        30.08F
PUYALLUP       CLOUDY    52  52 100 CALM      30.08F
BREMERTON      CLOUDY    52  52 100 S12       30.12R
JBLM-FT LEWIS  CLOUDY    51  51 100 W1        30.08S
TACOMA NARROWS LGT RAIN  51  50  96 S5        30.09S
$$

WAZ001-503-506-510-514-515-121400-
NORTH INTERIOR

CITY           SKY/WX    TMP DP  RH WIND       PRES   REMARKS
BELLINGHAM     CLOUDY    48  46  93 N5        30.04F
FRIDAY HARBOR  CLOUDY    51  49  92 E10       30.03F
EASTSOUND      CLOUDY    54  50  87 S6        30.00F
PORT ANGELES   FOG       47  46  97 NE3       30.01S VSB 3/4
EDIZ HOOK      CLOUDY    47  46  98 NW6       30.02F
PORT TOWNSEND  CLOUDY    54  52  94 S7        30.03F
NAS WHIDBEY    CLOUDY    53  51  93 SE16      30.07F
ARLINGTON      CLOUDY    52  46  82 S12       30.08F
BURLINGTON     CLOUDY    54  52  94 SE7       30.06S
$$

WAZ020-022-039-040-504-511-512-121400-
SOUTHWEST INTERIOR

CITY           SKY/WX    TMP DP  RH WIND       PRES   REMARKS
SHELTON        CLOUDY    49  48  97 CALM      30.06S FOG
OLYMPIA        CLOUDY    51  49  92 S10       30.09S
CHEHALIS       MOCLDY    52  52 100 S9        30.10F
KELSO          MOCLDY    50  45  81 SE9       30.16R
VANCOUVER      CLOUDY    49  43  80 SE7       30.15S
SCAPPOOSE, OR  CLOUDY    50  47  89 S5        30.14F
PORTLAND, OR   CLOUDY    50  43  77 E12       30.14F
$$

WAZ021-516-517-121400-
WASHINGTON COAST

CITY           SKY/WX    TMP DP  RH WIND       PRES   REMARKS
FORKS          CLOUDY    53  52  96 S14G25    30.02R
HOQUIAM        LGT RAIN  53  52  96 S12       30.07S FOG
ASTORIA, OR    LGT RAIN  55  53  93 S9        30.08S FOG
$$

WAZ019-023-024-040-518-519-121400-
CASCADE MOUNTAINS AND COLUMBIA GORGE

CITY           SKY/WX    TMP DP  RH WIND       PRES   REMARKS
STAMPEDE PASS  NOT AVBL
TROUTDALE, OR  CLOUDY    51  42  71 E21G29    30.15F
THE DALLES, OR CLOUDY    44  42  93 S3        30.23S FOG
$$

WAZ026-027-041>044-520-521-121400-
EAST SLOPES

CITY           SKY/WX    TMP DP  RH WIND       PRES   REMARKS
OMAK           FOG       34  33  96 SE3       30.20S VSB 3/4
WENATCHEE      CLOUDY    37  35  92 CALM      30.20F FOG
ELLENSBURG     CLOUDY    36  33  89 CALM      30.18S FOG
YAKIMA         CLOUDY    41  37  86 CALM      30.21S
$$

WAZ028-034-035-121400-
COLUMBIA BASIN

CITY           SKY/WX    TMP DP  RH WIND       PRES   REMARKS
EPHRATA        CLOUDY    41  38  89 NW3       30.19R
MOSES LAKE     CLOUDY    38  37  97 CALM      30.21R
PASCO          CLOUDY    40  38  93 SE3       30.25S
HERMISTON, OR  CLOUDY    42  40  92 CALM      30.22S
$$

WAZ036>038-121400-
NORTHEAST WASHINGTON

CITY           SKY/WX    TMP DP  RH WIND       PRES   REMARKS
SPOKANE GEIGER CLOUDY    38  37  97 E7        30.19S
SPOKANE FELTS  CLOUDY    41  38  89 CALM      30.21S
FAIRCHILD AFB  CLOUDY    37  37 100 E6        30.19S
COEURDALENE,ID CLOUDY    39  36  87 NE8       30.19R
DEER PARK      CLOUDY    38  36  92 NE5       30.20F
$$

WAZ029>033-121400-
SOUTHEAST WASHINGTON

CITY           SKY/WX    TMP DP  RH WIND       PRES   REMARKS
PULLMAN        CLOUDY    44  38  79 E8        30.20R
LEWISTON, ID   CLOUDY    44  37  76 E3        30.19F
WALLA WALLA    CLOUDY    41  40  96 S5        30.21F FOG
PENDLETON, OR  FOG       40  39  97 SE6       30.20F VSB 3/4
$$



USA.gov is the U.S. government's official web portal to all federal, state and local government web resources and services.